STARLINK-3399, 51121

Orbit data source: Space-Track

STARLINK-3399, 51121 is a payload satellite owned by SpaceX/Seattle (US) in LEO that was launched on Wed, 19 Jan 2022 UTC via an FALCON 9 launch vehicle from the Air Force Eastern Test Range (AFETR). Payload-class satellites include a variety of spacecraft equipped with specific instruments for various scientific and technological missions. These include communications satellites like Starlink; space stations such as the ISS; scientific satellites like the Hubble; Earth observation satellites from companies like Planet Labs, Umbra, and HawkEye 360; GPS; miniature CubeSats for education and research; and military/defense satellites.

Loading next visibility...
Identifier
51121, 2022-005T
Orbit
LEO
Country
Flag of USUS
Related business
Manufacturer
SpaceX/Seattle
Mission
Operational Commercial Communications
Bus & Motor
STARLINK, Unknown motor
Mass
297 kg wet, ~275 kg dry
Launch date (UTC)
2022-01-19 (4 years ago)
Launch vehicle
FALCON 9
Launch site
Air Force Eastern Test Range (AFETR)
Object type
Payload
Rocket body
Debris
Shape & HBR
Box + 1 Pan, 10.1 m
Radar Cross Section
13.562 m², Large (>1 m²)

Expand to show TLE details & history
Last TLE update: 13 hours ago

TLE from 13 hours ago
0 STARLINK-3399
1 51121U 22005T   26094.17295714 -.00024555  00000-0 -15255-2 0  9999
2 51121  53.2154 174.7320 0000675   0.3622 359.7370 15.08948572232726
Epoch: 2026-04-04T04:09Z
TLE epoch observation values (Epoch: 2026-04-04T04:09:03.496Z)
Latitude
-0.00009°
Longitude
-80.02917°
Altitude
539.842 km
Speed
7.594 km/s
True Right ascension
11h 38m 55s
True Declination
0° 00' 00"
Sunlit
Object was in full shadow at epoch
Visualization orbit readout
Latitude
Unknown
Longitude
Unknown
Altitude
Unknown
Speed
Unknown
Apparent Right ascension
Unknown
Apparent Declination
Unknown
Sunlit
N/A
Visualization observer readout
Local Sidereal Time
22:31:14
Azimuth
Unknown
Elevation
Unknown
Doppler factor
Unknown
Orbital elements
Apogee altitude
540.124 km
Perigee altitude
539.19 km
Semi-major axis
6,917.794 km
Eccentricity
0.00007
Inclination
53.2154°
RAAN
174.732°
Arg. of periapsis
0.3622°
True anomaly
359.73696°
Mean anomaly
359.737°
Eccentric anomaly
359.73698°
Mean motion
3.77217 °/min
Orbital period
95.44 mins
BSTAR
-0.0015255
Loading maneuver chart data...
Computing Atmospheric mass density...
Loading historical data...
Loading historical data...
Loading historical data...
Loading historical data...
Loading historical data...
Loading historical data...
Loading historical data...

Documentation

Showing up to 5 results
|